NQ9F Weather Reports


time (UTC)temp
C
wind
direction
speed
KPH
gust
KPH
rain 1hr
cm
rain 24hr
cm
rain mn
cm
humidity
%
barometer
mb
20260506124853 10 356 11.3 27.4 0.00 0.00 0.00 92 1013.9
20260506124349 10 24 9.7 27.4 0.00 0.00 0.00 92 1013.8
20260506123847 10 3 19.3 20.9 0.00 0.00 0.00 92 1013.5
20260506123345 10 5 22.5 30.6 0.00 0.00 0.00 92 1013.6
20260506122842 10 6 16.1 19.3 0.00 0.00 0.00 93 1013.8
20260506122339 10 25 17.7 25.7 0.00 0.00 0.00 93 1013.5
20260506121837 10 14 17.7 25.7 0.00 0.00 0.00 93 1013.8
20260506121334 10 5 24.1 24.1 0.00 0.00 0.00 93 1013.9
20260506120831 10 2 16.1 24.1 0.00 0.00 0.00 93 1013.8
20260506120329 10 358 14.5 29.0 0.00 0.00 0.00 94 1013.5
20260506115826 9 348 27.4 27.4 0.00 0.00 0.00 94 1013.6
20260506115324 9 6 14.5 29.0 0.00 0.00 0.00 94 1013.8
20260506114821 10 6 24.1 27.4 0.00 0.00 0.00 93 1013.6
20260506114319 10 352 19.3 30.6 0.00 0.00 0.00 93 1013.8
20260506113818 10 349 17.7 29.0 0.00 0.00 0.00 92 1013.3
20260506113315 10 352 20.9 27.4 0.00 0.00 0.00 91 1013.3
20260506112811 10 353 11.3 30.6 0.00 0.00 0.00 91 1013.3
20260506112308 10 352 24.1 29.0 0.00 0.00 0.00 90 1013.4
20260506111806 10 339 20.9 22.5 0.00 0.00 0.00 89 1013.0
20260506111304 10 359 11.3 27.4 0.00 0.00 0.00 88 1012.9
20260506110801 10 0 6.4 32.2 0.00 0.00 0.00 87 1012.8
20260506110258 10 351 11.3 33.8 0.00 0.00 0.00 86 1012.8
20260506105754 11 357 17.7 27.4 0.00 0.00 0.00 86 1012.8
20260506105251 11 345 11.3 30.6 0.00 0.00 0.00 85 1012.4
20260506104749 11 346 16.1 30.6 0.00 0.00 0.00 84 1012.4
20260506104247 11 355 17.7 29.0 0.00 0.00 0.00 84 1012.5
20260506103744 11 357 16.1 32.2 0.00 0.00 0.00 84 1012.6
20260506103241 11 335 16.1 35.4 0.00 0.00 0.00 84 1012.3
20260506102738 11 355 17.7 30.6 0.00 0.00 0.00 85 1012.3
20260506102236 11 330 14.5 29.0 0.00 0.00 0.00 84 1012.5
20260506101733 11 359 35.4 35.4 0.00 0.00 0.00 84 1012.2
20260506101230 11 344 16.1 37.0 0.00 0.00 0.00 84 1012.1
20260506100728 12 354 20.9 30.6 0.00 0.00 0.00 83 1012.2
20260506100226 12 337 19.3 30.6 0.00 0.00 0.00 83 1011.8
20260506095724 12 10 17.7 22.5 0.00 0.00 0.00 83 1011.8
20260506095220 12 332 20.9 27.4 0.00 0.00 0.00 82 1011.7
20260506094717 12 348 12.9 19.3 0.00 0.00 0.00 83 1011.5
20260506094215 12 2 6.4 17.7 0.00 0.00 0.00 83 1011.4
20260506093714 12 13 11.3 22.5 0.00 0.00 0.00 82 1011.3
20260506093210 12 359 22.5 22.5 0.00 0.00 0.00 82 1011.4
20260506092708 12 7 14.5 20.9 0.00 0.00 0.00 82 1011.0
20260506092205 12 0 12.9 20.9 0.00 0.00 0.00 82 1011.4
20260506091703 12 352 6.4 16.1 0.00 0.00 0.00 82 1011.1
20260506091200 12 343 11.3 19.3 0.00 0.00 0.00 82 1011.2
20260506090658 12 3 16.1 19.3 0.00 0.00 0.00 83 1011.0
20260506090154 12 354 9.7 20.9 0.00 0.00 0.00 83 1010.9
20260506085651 12 1 11.3 19.3 0.00 0.00 0.00 83 1011.2
20260506085147 13 354 8.0 17.7 0.00 0.00 0.00 82 1011.0
20260506084644 13 0 9.7 12.9 0.00 0.00 0.00 83 1011.3
20260506084141 12 2 8.0 17.7 0.00 0.00 0.00 82 1010.8
20260506083638 12 4 8.0 16.1 0.00 0.00 0.00 82 1010.7
20260506083136 13 4 4.8 14.5 0.00 0.00 0.00 82 1010.8
20260506082632 13 12 9.7 19.3 0.00 0.00 0.00 82 1010.7
20260506082128 13 0 19.3 22.5 0.00 0.00 0.00 82 1010.7
20260506081626 13 13 16.1 20.9 0.00 0.00 0.00 82 1010.7
20260506081124 13 349 11.3 19.3 0.00 0.00 0.00 82 1010.9
20260506080621 13 18 11.3 17.7 0.00 0.00 0.00 82 1011.1
20260506080118 13 0 12.9 17.7 0.00 0.00 0.00 82 1010.9
20260506073101 13 357 16.1 22.5 0.00 0.00 0.00 82 1011.1
20260506072558 13 10 6.4 16.1 0.00 0.00 0.00 83 1011.2
20260506072056 13 11 11.3 20.9 0.00 0.00 0.00 83 1010.8
20260506071554 13 20 8.0 16.1 0.00 0.00 0.00 83 1010.8
20260506071051 13 10 12.9 16.1 0.00 0.00 0.00 83 1010.9
20260506070548 13 21 11.3 16.1 0.00 0.00 0.00 83 1010.7
20260506062022 13 48 22.5 24.1 0.00 0.00 0.00 84 1010.4
20260506061518 13 49 14.5 14.5 0.00 0.00 0.00 84 1010.4
20260506061016 13 13 6.4 17.7 0.00 0.00 0.00 85 1010.3
20260506060514 14 34 6.4 14.5 0.00 0.00 0.00 85 1010.5
20260506050943 15 11 11.3 20.9 0.00 0.00 0.00 85 1010.5
20260506050441 15 4 16.1 19.3 0.00 0.00 0.00 85 1010.4
20260506044931 15 358 9.7 22.5 0.00 0.00 0.00 84 1010.4
20260506044429 15 347 9.7 17.7 0.00 0.00 0.00 84 1010.5
20260506043926 15 358 8.0 24.1 0.00 0.00 0.00 84 1010.4
20260506043423 15 3 11.3 20.9 0.00 0.00 0.00 84 1010.8
20260506042921 15 1 17.7 20.9 0.00 0.00 0.00 84 1010.4
20260506042420 15 353 11.3 22.5 0.00 0.00 0.00 84 1010.5
20260506041918 15 0 19.3 24.1 0.00 0.00 0.00 83 1010.5
20260506041415 15 4 14.5 19.3 0.00 0.00 0.00 83 1010.7
20260506040912 15 8 20.9 22.5 0.00 0.00 0.00 83 1010.5
20260506040410 15 0 14.5 24.1 0.00 0.00 0.00 82 1010.4
20260506035905 15 0 12.9 22.5 0.00 0.00 0.00 82 1010.5
20260506035403 15 340 6.4 22.5 0.00 0.00 0.00 82 1010.4
20260506034900 15 5 14.5 24.1 0.00 0.00 0.00 82 1010.5
20260506034358 15 335 19.3 25.7 0.00 0.00 0.00 81 1010.4
20260506033854 15 356 12.9 25.7 0.00 0.00 0.00 81 1010.4
20260506033351 15 0 17.7 30.6 0.00 0.00 0.00 81 1010.1
20260506032848 15 336 20.9 30.6 0.00 0.00 0.00 81 1010.0
20260506032344 16 338 14.5 20.9 0.00 0.00 0.00 81 1009.9
20260506031841 16 344 9.7 24.1 0.00 0.00 0.00 81 1009.9
20260506031339 16 355 11.3 27.4 0.00 0.00 0.00 81 1009.6
20260506030836 16 0 11.3 20.9 0.00 0.00 0.00 81 1009.4
20260506030334 16 359 17.7 22.5 0.00 0.00 0.00 81 1009.2
20260506025831 16 349 9.7 22.5 0.00 0.00 0.00 80 1009.3
20260506025327 16 5 22.5 27.4 0.00 0.00 0.00 81 1009.2
20260506024824 16 0 22.5 25.7 0.00 0.00 0.00 81 1009.1
20260506024321 16 2 16.1 17.7 0.00 0.00 0.00 81 1009.1
20260506023817 16 6 12.9 19.3 0.00 0.00 0.00 81 1009.2
20260506023314 16 4 12.9 24.1 0.00 0.00 0.00 80 1009.0
20260506022811 17 358 17.7 27.4 0.00 0.00 0.00 79 1008.8
20260506022309 17 17 6.4 27.4 0.00 0.00 0.00 79 1008.8
20260506021807 17 7 14.5 24.1 0.00 0.00 0.00 79 1008.8
20260506021303 17 2 14.5 17.7 0.00 0.00 0.00 79 1008.7
20260506020800 17 355 6.4 24.1 0.00 0.00 0.00 79 1008.8
20260506020258 17 8 8.0 19.3 0.00 0.00 0.00 79 1008.6
20260506015755 17 2 12.9 22.5 0.00 0.00 0.00 78 1008.2
20260506015253 17 4 19.3 22.5 0.00 0.00 0.00 78 1008.2
20260506014749 18 0 6.4 20.9 0.00 0.00 0.00 78 1008.1
20260506014246 18 3 12.9 22.5 0.00 0.00 0.00 78 1007.7
20260506013743 18 351 9.7 22.5 0.00 0.00 0.00 77 1007.4
20260506013240 18 2 19.3 32.2 0.00 0.00 0.00 77 1007.2
20260506012736 18 6 16.1 27.4 0.00 0.00 0.00 76 1007.6
20260506012233 18 6 14.5 20.9 0.00 0.00 0.00 77 1007.4
20260506011731 18 4 17.7 17.7 0.00 0.00 0.00 77 1007.3
20260506011227 18 353 12.9 19.3 0.00 0.00 0.00 77 1007.1
20260506010725 18 2 14.5 22.5 0.00 0.00 0.00 77 1006.9
20260506010222 18 25 8.0 22.5 0.00 0.00 0.00 77 1006.4
20260506005720 18 5 14.5 20.9 0.00 0.00 0.00 76 1006.5
20260506005216 19 357 14.5 25.7 0.00 0.00 0.00 75 1006.4
20260506004712 19 332 19.3 19.3 0.00 0.00 0.00 75 1006.2
20260506004210 19 0 17.7 29.0 0.00 0.00 0.00 75 1006.2
20260506003706 19 350 22.5 29.0 0.00 0.00 0.00 75 1006.1
20260506003202 20 359 24.1 35.4 0.00 0.00 0.00 74 1006.3
20260506002658 20 353 24.1 29.0 0.00 0.00 0.00 74 1006.3
20260506002155 20 359 17.7 38.6 0.00 0.00 0.00 73 1006.4
20260506001650 20 358 25.7 27.4 0.00 0.00 0.00 72 1006.3
20260506001148 20 350 17.7 22.5 0.00 0.00 0.00 73 1006.0
20260506000645 21 359 22.5 32.2 0.00 0.00 0.00 71 1006.1
20260506000142 21 357 12.9 27.4 0.00 0.00 0.00 71 1006.0
20260505235640 21 349 9.7 27.4 0.00 0.00 0.00 70 1006.0
20260505235137 21 355 24.1 27.4 0.00 0.00 0.00 71 1006.4
20260505234634 21 358 22.5 30.6 0.00 0.00 0.00 70 1006.2
20260505234131 21 0 12.9 29.0 0.00 0.00 0.00 71 1006.0
20260505233628 21 358 25.7 30.6 0.00 0.00 0.00 70 1006.1
20260505233126 22 355 19.3 27.4 0.00 0.00 0.00 70 1005.9
20260505232623 22 4 19.3 33.8 0.00 0.00 0.00 69 1005.8
20260505232120 22 1 22.5 29.0 0.00 0.00 0.00 68 1005.7
20260505231617 22 343 14.5 27.4 0.00 0.00 0.00 68 1005.8
20260505231116 22 6 9.7 22.5 0.00 0.00 0.00 69 1005.8
20260505230613 22 351 12.9 33.8 0.00 0.00 0.00 67 1005.8
20260505230109 22 346 24.1 24.1 0.00 0.00 0.00 67 1005.8
20260505225606 23 339 11.3 29.0 0.00 0.00 0.00 67 1005.7
20260505225102 23 348 8.0 17.7 0.00 0.00 0.00 67 1005.7
20260505224559 23 343 9.7 19.3 0.00 0.00 0.00 68 1005.5
20260505224057 23 333 17.7 35.4 0.00 0.00 0.00 66 1005.4
20260505223554 23 333 16.1 32.2 0.00 0.00 0.00 66 1005.4
20260505223050 24 327 14.5 24.1 0.00 0.00 0.00 65 1005.6
20260505222546 24 321 9.7 25.7 0.00 0.00 0.00 64 1005.4
20260505222042 24 349 12.9 24.1 0.00 0.00 0.00 64 1005.2
20260505221539 24 324 17.7 27.4 0.00 0.00 0.00 64 1005.5
20260505221036 25 327 11.3 24.1 0.00 0.00 0.00 64 1005.4
20260505220533 25 355 9.7 24.1 0.00 0.00 0.00 63 1005.1
20260505220031 25 352 14.5 25.7 0.00 0.00 0.00 63 1005.2
20260505215529 25 354 11.3 22.5 0.00 0.00 0.00 64 1005.3
20260505215026 25 326 12.9 35.4 0.00 0.00 0.00 62 1005.1
20260505214524 25 343 20.9 24.1 0.00 0.00 0.00 63 1005.2
20260505214021 25 358 16.1 25.7 0.00 0.00 0.00 63 1005.1
20260505213519 26 0 14.5 27.4 0.00 0.00 0.00 64 1005.0
20260505213015 26 321 12.9 22.5 0.00 0.00 0.00 64 1005.1
20260505212511 26 323 12.9 32.2 0.00 0.00 0.00 63 1005.4
20260505212009 26 321 19.3 27.4 0.00 0.00 0.00 61 1005.1
20260505211506 27 353 12.9 35.4 0.00 0.00 0.00 58 1005.0
20260505211002 27 328 20.9 30.6 0.00 0.00 0.00 55 1005.1
20260505210459 27 341 11.3 29.0 0.00 0.00 0.00 54 1005.2
20260505205955 27 340 8.0 24.1 0.00 0.00 0.00 52 1005.0
20260505205454 27 356 11.3 27.4 0.00 0.00 0.00 53 1005.3
20260505204951 27 336 9.7 27.4 0.00 0.00 0.00 50 1005.3
20260505204449 28 9 11.3 24.1 0.00 0.00 0.00 49 1005.2
20260505203946 27 320 20.9 29.0 0.00 0.00 0.00 48 1005.3
20260505203442 27 317 12.9 30.6 0.00 0.00 0.00 48 1005.4
20260505202938 27 317 27.4 33.8 0.00 0.00 0.00 45 1005.3
20260505202435 27 320 25.7 35.4 0.00 0.00 0.00 44 1005.3
20260505201931 27 314 27.4 32.2 0.00 0.00 0.00 45 1005.3
20260505201428 27 333 29.0 37.0 0.00 0.00 0.00 44 1005.3
20260505200926 27 329 14.5 38.6 0.00 0.00 0.00 47 1005.3
20260505200423 28 329 20.9 40.2 0.00 0.00 0.00 46 1005.1
20260505195919 30 283 9.7 16.1 0.00 0.00 0.00 52 1004.9
20260505195417 30 263 6.4 16.1 0.00 0.00 0.00 51 1005.3
20260505194914 30 313 8.0 19.3 0.00 0.00 0.00 52 1005.3
20260505194412 30 256 24.1 25.7 0.00 0.00 0.00 51 1005.3
20260505193911 30 244 14.5 17.7 0.00 0.00 0.00 53 1005.3
20260505193409 30 231 11.3 24.1 0.00 0.00 0.00 54 1005.3
20260505192907 30 244 11.3 17.7 0.00 0.00 0.00 52 1005.2
20260505192405 30 250 16.1 24.1 0.00 0.00 0.00 54 1005.3
20260505191902 30 232 12.9 16.1 0.00 0.00 0.00 60 1005.2
20260505191401 29 235 12.9 25.7 0.00 0.00 0.00 60 1005.4
20260505190857 29 223 4.8 25.7 0.00 0.00 0.00 59 1005.2
20260505190353 29 223 14.5 27.4 0.00 0.00 0.00 61 1005.0
20260505185848 29 228 14.5 27.4 0.00 0.00 0.00 62 1005.3
20260505185345 29 200 9.7 22.5 0.00 0.00 0.00 62 1005.1
20260505184841 29 224 22.5 27.4 0.00 0.00 0.00 62 1005.1
20260505184338 28 233 9.7 20.9 0.00 0.00 0.00 63 1005.1
20260505183835 28 227 20.9 24.1 0.00 0.00 0.00 63 1005.4
20260505183332 28 204 17.7 25.7 0.00 0.00 0.00 62 1005.0
20260505182829 28 212 12.9 22.5 0.00 0.00 0.00 63 1005.2
20260505182325 28 203 20.9 27.4 0.00 0.00 0.00 62 1005.1
20260505181822 28 209 14.5 27.4 0.00 0.00 0.00 62 1005.2
20260505181320 28 234 16.1 20.9 0.00 0.00 0.00 63 1005.1
20260505180816 28 215 17.7 32.2 0.00 0.00 0.00 63 1005.2
20260505180312 28 206 8.0 27.4 0.00 0.00 0.00 65 1005.3
20260505175809 28 217 11.3 20.9 0.00 0.00 0.00 66 1005.2
20260505175306 28 225 6.4 27.4 0.00 0.00 0.00 67 1005.4
20260505174802 27 218 12.9 17.7 0.00 0.00 0.00 66 1005.4
20260505174259 28 209 17.7 22.5 0.00 0.00 0.00 67 1005.2
20260505173755 28 198 16.1 17.7 0.00 0.00 0.00 66 1005.3
20260505173252 27 208 11.3 20.9 0.00 0.00 0.00 68 1005.5
20260505172749 27 181 12.9 24.1 0.00 0.00 0.00 68 1005.1
20260505172246 27 219 14.5 27.4 0.00 0.00 0.00 68 1005.3
20260505171746 27 169 4.8 27.4 0.00 0.00 0.00 67 1005.3
20260505171243 27 198 11.3 19.3 0.00 0.00 0.00 67 1005.1
20260505170740 27 231 27.4 27.4 0.00 0.00 0.00 66 1005.0
20260505170237 27 184 14.5 22.5 0.00 0.00 0.00 67 1005.0
20260505165732 27 201 8.0 32.2 0.00 0.00 0.00 67 1005.2
20260505165229 27 204 14.5 33.8 0.00 0.00 0.00 66 1004.9
20260505164724 27 199 8.0 22.5 0.00 0.00 0.00 68 1005.0
20260505164221 27 229 11.3 33.8 0.00 0.00 0.00 69 1005.1
20260505163719 26 184 6.4 32.2 0.00 0.00 0.00 68 1005.2
20260505163218 26 222 17.7 35.4 0.00 0.00 0.00 71 1005.4
20260505162715 26 191 11.3 24.1 0.00 0.00 0.00 72 1005.1
20260505162212 26 192 14.5 27.4 0.00 0.00 0.00 73 1005.0
20260505161708 26 195 9.7 24.1 0.00 0.00 0.00 73 1004.9
20260505161206 25 206 12.9 29.0 0.00 0.00 0.00 74 1005.0
20260505160704 25 205 9.7 29.0 0.00 0.00 0.00 75 1004.6
20260505160201 25 199 16.1 24.1 0.00 0.00 0.00 76 1004.6
20260505153140 23 199 19.3 32.2 0.00 0.00 0.00 79 1004.4
20260505152637 23 204 12.9 25.7 0.00 0.00 0.00 80 1004.6
20260505152133 23 221 14.5 40.2 0.00 0.00 0.00 79 1004.7
20260505151628 23 220 38.6 45.1 0.00 0.00 0.00 79 1004.4
20260505151126 23 218 17.7 24.1 0.00 0.00 0.00 80 1004.7
20260505150622 23 208 17.7 38.6 0.00 0.00 0.00 80 1004.6
20260505150119 23 197 8.0 22.5 0.00 0.00 0.00 81 1004.3
20260505140547 21 195 27.4 37.0 0.00 0.00 0.00 84 1003.9